Home   Weather   Larissa   Past weeks

Flag for Greece Past Weather in Larissa, Greece — Yesterday and Last 2 Weeks

Now
61 °F

Clear.


Feels Like: 61 °F
Forecast: 46 / 78 °F
Wind: 5 mph from South

Location: Skiathos Island

Current Time: Apr 27, 2017 at 12:41:12 am

Latest Report: Apr 26, 2017 at 9:50 pm


Visibility: 10 mi

Pressure: 30.04 "Hg

Humidity: 55%

Dew Point: 45 °F

Location of LarissaLocation

Past Weather in Larissa — Graph

°F

Larissa Temperature Yesterday

Maximum temperature yesterday: 66 °F (at 4:50 pm)
Minimum temperature yesterday: 55 °F (at 5:50 am)
Average temperature yesterday: 61 °F

High & Low Weather Summary for the Past Weeks

 TemperatureHumidityPressure
High70 °F (Apr 16, 2:50 pm)94% (Apr 26, 5:50 am)30.24 "Hg (Apr 26, 5:50 am)
Low48 °F (Apr 22, 9:50 pm)33% (Apr 21, 6:50 pm)29.77 "Hg (Apr 13, 6:50 pm)
Average60 °F64%29.97 "Hg
* Reported Apr 11 9:50 pm — Apr 26 9:50 pm, Larissa, Weather by CustomWeather, © 2017

Note: Actual official high and low records may vary slightly from our data, if they occured in-between our weather recording intervals... More about our weather records

Advertising

Larissa Weather History for the Previous 24 Hours

Scroll right to see more
 ConditionsComfort  
Time TempWeatherWind HumidityBarometerVisibility
9:50 pm
Wed, Apr 26
61 °FClear.5 mph55%30.04 "Hg10 mi
8:50 pm61 °FClear.6 mph59%30.04 "Hg10 mi
7:50 pm63 °FSunny.8 mph56%30.04 "Hg10 mi
6:50 pm64 °FSunny.9 mph56%30.04 "Hg10 mi
5:50 pm66 °FSunny.8 mph56%30.07 "Hg10 mi
4:50 pm66 °FSunny.5 mph60%30.07 "Hg10 mi
3:50 pm63 °FSunny.5 mph68%30.09 "Hg10 mi
2:50 pm63 °FPassing clouds.6 mph68%30.09 "HgN/A
1:50 pm63 °FPassing clouds.6 mph68%30.09 "HgN/A
12:50 pm63 °FPassing clouds.7 mph73%30.12 "HgN/A
11:50 am63 °FPassing clouds.7 mph68%30.12 "HgN/A
10:50 am61 °FPassing clouds.6 mph72%30.09 "HgN/A
9:50 am61 °FPassing clouds.6 mph77%30.09 "HgN/A
8:50 am59 °FPassing clouds.6 mph77%30.09 "HgN/A
7:50 am57 °FPassing clouds.No wind88%30.09 "HgN/A
6:50 am57 °FPassing clouds.No wind88%30.09 "HgN/A
5:50 am55 °FClear.No wind94%30.09 "Hg10 mi
Weather by CustomWeather, © 2017

See weather overviewHow to use our weather pages